This demonstration page uses our WeatherBlox Daily Observations layout. Learn more.

Left ArrowRight Arrow

Hourly Observations for May 22, 2015

Temp ( °F °C ) Dew Point ( °F °C ) Humidity (%) Winds ( mph kmh ) Pressure ( in mb ) Visibility ( mi km ) Precip ( " mm )
12:21 am 00:21 Cloudy with Mist and Fog 57 13.9 53 11.7 87 87 N 5 7 30.09 1019 5 8 0.00 0.00
12:53 am 00:53 Cloudy with Light Rain 56 13.3 53 11.7 90 90 N 10 17 30.05 1018 3 4 0.00 0.03
1:03 am 01:03 Cloudy with Light Rain 55 13 54 12 94 94 N 9 15 30.09 1019 3 4 0.00 0.00
1:44 am 01:44 Cloudy with Mist and Fog 55 13 54 12 94 94 NE 9 15 30.06 1018 3 5 0.00 0.00
1:53 am 01:53 Cloudy with Mist and Fog 56 13.3 53 11.7 90 90 NE 9 15 30.03 1017 3 4 0.03 0.76
2:03 am 02:03 Cloudy with Light Rain 55 13 54 12 94 94 NE 9 15 30.06 1018 3 5 0.00 0.00
2:13 am 02:13 Cloudy with Light Rain 56 13.3 53 11.7 90 90 NNE 9 15 30.06 1018 5 8 0.00 0.03
2:53 am 02:53 Cloudy with Light Rain 56 13.3 53 11.7 90 90 NE 10 17 30.00 1016 3 5 0.02 0.51
3:09 am 03:09 Cloudy with Mist and Fog 56 13.3 53 11.7 90 90 NE 8 13 30.03 1017 5 8 0.00 0.03
3:53 am 03:53 Cloudy with Mist and Fog 57 13.9 54 12.2 90 90 N 7 11 30.00 1016 5 8 0.00 0.03
4:53 am 04:53 Cloudy with Mist and Fog 57 13.9 54 12.2 90 90 NNE 5 7 29.99 1016 4 6 0.00 0.00
5:01 am 05:01 Cloudy with Mist and Fog 57 13.9 54 12.2 90 90 NNE 5 7 30.00 1016 3 5 0.00 0.00
5:21 am 05:21 Cloudy with Mist and Fog 57 13.9 55 12.8 93 93 N 6 9 30.00 1016 4 6 0.00 0.00
5:53 am 05:53 Cloudy with Mist and Fog 58 14.4 55 12.8 90 90 NNE 6 9 29.99 1016 5 8 0.00 0.00
6:53 am 06:53 Cloudy with Mist and Fog 58 14.4 55 12.8 90 90 NNE 3 6 30.00 1016 5 8 0.00 0.00
7:53 am 07:53 Cloudy with Mist and Fog 59 15 56 13.3 90 90 NNE 3 6 30.01 1016 5 8 0.00 0.00
8:53 am 08:53 Cloudy 60 15.6 57 13.9 90 90 ENE 3 6 30.01 1016 8 13 0.00 0.00
9:43 am 09:43 Cloudy with Mist and Fog 61 16.1 58 14.4 90 90 ESE 3 6 30.03 1017 3 4 0.00 0.00
9:53 am 09:53 Cloudy with Mist and Fog 61 16.1 58 14.4 90 90 SE 3 6 30.02 1017 3 5 0.00 0.00
10:53 am 10:53 Cloudy 63 17.2 58 14.4 84 84 Calm 30.01 1016 10 16 0.00 0.00
11:07 am 11:07 Cloudy 63 17.2 58 14.4 84 84 Calm 30.00 1016 10 16 0.00 0.00
11:53 am 11:53 Cloudy 65 18.3 59 15 81 81 Calm 30.01 1016 10 16 0.00 0.00
12:19 pm 12:19 Cloudy 66 18.9 59 15 78 78 ENE 3 6 30.00 1016 10 16 0.00 0.00
12:53 pm 12:53 Cloudy 66 18.9 59 15 78 78 E 3 6 30.00 1016 10 16 0.00 0.00
1:49 pm 13:49 Cloudy 70 21 61 16 73 73 SE 5 7 29.94 1014 10 16 0.00 0.00
1:53 pm 13:53 Cloudy 69 20.6 59 15 70 70 ENE 5 7 29.97 1015 10 16 0.00 0.00
2:53 pm 14:53 Cloudy 73 22.8 60 15.6 64 64 ENE 7 11 29.94 1014 10 16 0.00 0.00
3:53 pm 15:53 Mostly Cloudy 76 24.4 60 15.6 58 58 E 8 13 29.90 1013 10 16 0.00 0.00
4:12 pm 16:12 Partly Cloudy 77 25 61 16 57 57 E 10 17 29.83 1010 10 16 0.00 0.00
4:53 pm 16:53 Sunny 79 26.1 60 15.6 52 52 NE 8 13 29.86 1011 10 16 0.00 0.00
5:53 pm 17:53 Sunny 80 26.7 61 16.1 52 52 ESE 14 22 29.84 1010 10 16 0.00 0.00
6:53 pm 18:53 Mostly Sunny 82 27.8 62 16.7 51 51 ESE 20 31 29.80 1009 10 16 0.00 0.00
7:53 pm 19:53 Sunny 79 26.1 62 16.7 56 56 SE 22 35 29.80 1009 10 16 0.00 0.00
8:53 pm 20:53 Clear 75 23.9 62 16.7 64 64 SE 22 35 29.82 1010 10 16 0.00 0.00
9:53 pm 21:53 Clear 73 22.8 62 16.7 69 69 SE 26 43 29.83 1010 10 16 0.00 0.00
10:38 pm 22:38 Cloudy 73 23 61 16 65 65 SE 20 31 29.80 1009 10 16 0.00 0.00
10:53 pm 22:53 Cloudy 73 22.8 62 16.7 69 69 SE 18 30 29.83 1010 10 16 0.00 0.00
11:53 pm 23:53 Cloudy 72 22.2 62 16.7 71 71 SE 20 31 29.82 1010 10 16 0.00 0.00

Powered by AerisWeather